TimeCDT,TemperatureF,Dew PointF,Humidity,Sea Level PressureIn,VisibilityMPH,Wind Direction,Wind SpeedMPH,Gust SpeedMPH,PrecipitationIn,Events,Conditions,WindDirDegrees,DateUTC
12:15 AM,66.2,62.6,88,29.91,7.0,NNE,5.8,-,N/A,,Scattered Clouds,30,2013-03-19 05:15:00
12:35 AM,69.8,59.0,68,29.91,10.0,NE,12.7,19.6,N/A,,Clear,40,2013-03-19 05:35:00
12:55 AM,68.0,55.4,64,29.92,10.0,NNE,9.2,-,N/A,,Clear,30,2013-03-19 05:55:00
1:15 AM,68.0,53.6,60,29.92,10.0,NNE,10.4,-,N/A,,Clear,30,2013-03-19 06:15:00
1:35 AM,68.0,53.6,60,29.92,10.0,NNE,9.2,18.4,N/A,,Clear,30,2013-03-19 06:35:00
1:55 AM,68.0,53.6,60,29.92,10.0,NNE,10.4,16.1,N/A,,Clear,30,2013-03-19 06:55:00
2:15 AM,68.0,51.8,56,29.93,10.0,NE,9.2,-,N/A,,Clear,40,2013-03-19 07:15:00
2:55 AM,66.2,51.8,60,29.94,10.0,NNE,11.5,-,N/A,,Clear,30,2013-03-19 07:55:00
3:15 AM,66.2,51.8,60,29.94,10.0,NNE,11.5,-,N/A,,Clear,30,2013-03-19 08:15:00
3:35 AM,64.4,50.0,59,29.94,10.0,NNE,10.4,-,N/A,,Clear,30,2013-03-19 08:35:00
3:55 AM,64.4,50.0,59,29.94,10.0,NE,11.5,-,N/A,,Clear,40,2013-03-19 08:55:00
4:15 AM,64.4,50.0,59,29.94,10.0,NE,11.5,-,N/A,,Clear,40,2013-03-19 09:15:00
4:35 AM,62.6,46.4,55,29.94,10.0,NE,9.2,-,N/A,,Clear,40,2013-03-19 09:35:00
4:55 AM,62.6,44.6,52,29.95,10.0,NE,12.7,17.3,N/A,,Clear,50,2013-03-19 09:55:00
5:15 AM,62.6,42.8,48,29.95,10.0,ENE,9.2,16.1,N/A,,Clear,60,2013-03-19 10:15:00
5:35 AM,60.8,41.0,48,29.96,10.0,ENE,9.2,-,N/A,,Clear,60,2013-03-19 10:35:00
5:55 AM,60.8,32.0,34,29.96,10.0,ENE,11.5,17.3,N/A,,Clear,60,2013-03-19 10:55:00
6:15 AM,60.8,26.6,27,29.97,10.0,ENE,12.7,19.6,N/A,,Clear,70,2013-03-19 11:15:00
6:55 AM,59.0,28.4,31,29.98,10.0,ENE,9.2,-,N/A,,Clear,60,2013-03-19 11:55:00
7:55 AM,57.2,32.0,38,29.99,10.0,ENE,5.8,-,N/A,,Clear,70,2013-03-19 12:55:00
8:15 AM,59.0,32.0,36,30.00,10.0,East,8.1,-,N/A,,Clear,90,2013-03-19 13:15:00
8:35 AM,59.0,33.8,39,30.00,10.0,East,9.2,-,N/A,,Clear,80,2013-03-19 13:35:00
8:55 AM,60.8,33.8,36,30.00,10.0,East,8.1,-,N/A,,Clear,100,2013-03-19 13:55:00
9:15 AM,62.6,32.0,32,30.00,10.0,ESE,10.4,-,N/A,,Clear,110,2013-03-19 14:15:00
9:35 AM,64.4,32.0,30,30.00,4.0,East,13.8,19.6,N/A,,Haze,100,2013-03-19 14:35:00
9:55 AM,64.4,33.8,32,30.00,10.0,ESE,15.0,19.6,N/A,,Clear,110,2013-03-19 14:55:00
10:15 AM,68.0,35.6,30,30.01,10.0,ESE,11.5,16.1,N/A,,Clear,120,2013-03-19 15:15:00
10:35 AM,69.8,35.6,28,30.01,10.0,East,11.5,16.1,N/A,,Clear,100,2013-03-19 15:35:00
10:55 AM,69.8,37.4,31,30.01,10.0,ESE,9.2,12.7,N/A,,Clear,110,2013-03-19 15:55:00
11:15 AM,71.6,41.0,33,30.01,10.0,SE,10.4,-,N/A,,Clear,140,2013-03-19 16:15:00
11:35 AM,73.4,41.0,31,30.01,10.0,ESE,5.8,-,N/A,,Clear,110,2013-03-19 16:35:00
11:55 AM,73.4,42.8,33,30.00,10.0,SSE,6.9,-,N/A,,Clear,150,2013-03-19 16:55:00
12:15 PM,75.2,44.6,34,30.00,10.0,ESE,9.2,16.1,N/A,,Clear,120,2013-03-19 17:15:00
12:35 PM,75.2,44.6,34,30.00,10.0,ESE,11.5,-,N/A,,Clear,120,2013-03-19 17:35:00
12:55 PM,75.2,46.4,36,29.99,10.0,ESE,4.6,-,N/A,,Clear,110,2013-03-19 17:55:00
1:15 PM,77.0,46.4,34,29.99,10.0,SE,8.1,-,N/A,,Clear,130,2013-03-19 18:15:00
1:35 PM,78.8,46.4,32,29.99,10.0,East,8.1,-,N/A,,Clear,90,2013-03-19 18:35:00
1:55 PM,78.8,46.4,32,29.97,10.0,ESE,9.2,-,N/A,,Clear,110,2013-03-19 18:55:00
2:15 PM,78.8,46.4,32,29.96,10.0,ESE,5.8,-,N/A,,Clear,110,2013-03-19 19:15:00
2:35 PM,78.8,50.0,36,29.95,10.0,SE,8.1,-,N/A,,Clear,140,2013-03-19 19:35:00
2:55 PM,78.8,50.0,36,29.95,10.0,SE,10.4,-,N/A,,Clear,140,2013-03-19 19:55:00
3:15 PM,77.0,50.0,39,29.94,10.0,SSE,10.4,19.6,N/A,,Clear,160,2013-03-19 20:15:00
3:35 PM,78.8,51.8,39,29.93,10.0,SE,10.4,-,N/A,,Clear,140,2013-03-19 20:35:00
3:55 PM,78.8,51.8,39,29.93,10.0,SE,9.2,-,N/A,,Clear,130,2013-03-19 20:55:00
4:15 PM,77.0,51.8,41,29.92,10.0,SE,8.1,-,N/A,,Clear,130,2013-03-19 21:15:00
4:35 PM,77.0,53.6,44,29.92,10.0,SE,5.8,-,N/A,,Clear,140,2013-03-19 21:35:00
4:55 PM,77.0,53.6,44,29.92,10.0,SSE,10.4,-,N/A,,Clear,150,2013-03-19 21:55:00
5:15 PM,77.0,53.6,44,29.92,10.0,SE,6.9,-,N/A,,Clear,140,2013-03-19 22:15:00
5:35 PM,77.0,53.6,44,29.92,10.0,SSE,9.2,-,N/A,,Clear,150,2013-03-19 22:35:00
5:55 PM,75.2,53.6,47,29.91,10.0,SE,5.8,-,N/A,,Clear,130,2013-03-19 22:55:00
6:15 PM,73.4,53.6,50,29.92,10.0,ESE,6.9,-,N/A,,Clear,110,2013-03-19 23:15:00
6:35 PM,71.6,55.4,57,29.92,10.0,SE,4.6,-,N/A,,Clear,140,2013-03-19 23:35:00
6:55 PM,71.6,55.4,57,29.93,10.0,SE,6.9,-,N/A,,Clear,130,2013-03-19 23:55:00
7:15 PM,69.8,55.4,60,29.94,10.0,SSE,5.8,-,N/A,,Mostly Cloudy,150,2013-03-20 00:15:00
7:35 PM,69.8,57.2,64,29.93,10.0,SSE,5.8,-,N/A,,Overcast,150,2013-03-20 00:35:00
7:55 PM,68.0,57.2,68,29.94,10.0,SSE,4.6,-,N/A,,Overcast,160,2013-03-20 00:55:00
8:35 PM,68.0,57.2,68,29.95,10.0,SSE,4.6,-,N/A,,Overcast,160,2013-03-20 01:35:00
8:55 PM,66.2,57.2,73,29.96,10.0,SSE,6.9,-,N/A,,Overcast,150,2013-03-20 01:55:00
9:15 PM,66.2,57.2,73,29.96,10.0,SE,8.1,-,N/A,,Overcast,140,2013-03-20 02:15:00
9:35 PM,66.2,57.2,73,29.97,10.0,North,-9999.0,-,N/A,,Overcast,0,2013-03-20 02:35:00
9:55 PM,66.2,59.0,78,29.97,10.0,ESE,4.6,-,N/A,,Mostly Cloudy,110,2013-03-20 02:55:00
10:35 PM,64.4,59.0,83,29.97,10.0,East,3.5,-,N/A,,Mostly Cloudy,90,2013-03-20 03:35:00
10:55 PM,64.4,59.0,83,29.96,10.0,ESE,4.6,-,N/A,,Scattered Clouds,110,2013-03-20 03:55:00
11:15 PM,64.4,59.0,83,29.98,10.0,NNE,4.6,-,N/A,,Scattered Clouds,20,2013-03-20 04:15:00
11:55 PM,66.2,60.8,83,29.98,10.0,NE,4.6,-,N/A,,Overcast,40,2013-03-20 04:55:00